Regional Weather Roundup
Issued by NWS Cleveland, OH

Home | Current Version | Previous Version | Text Only | Print | Product List | Glossary On
Versions: 1 2 3 4 5 6 7 8 9 10 11 12 13 14 15 16 17 18 19 20 21 22 23 24 25 26 27 28 29 30 31 32 33 34 35 36 37 38 39 40 41 42 43 44 45 46 47 48 49 50
000
ASUS41 KCLE 021010
RWRCLE
OHIO REGIONAL WEATHER ROUNDUP
NATIONAL WEATHER SERVICE WILMINGTON, OH
600 AM EDT WED SEP 02 2015

NOTE: "FAIR" INDICATES FEW OR NO CLOUDS BELOW 12,000 FEET WITH NO
SIGNIFICANT WEATHER AND/OR OBSTRUCTIONS TO VISIBILITY.

OHZ001>008-015>018-024>027-034-035-043-044-021100-
   NORTHWEST OHIO

CITY           SKY/WX    TMP DP  RH WIND       PRES   REMARKS
DEFIANCE       CLEAR     70  67  90 S5        30.07S FOG
FINDLAY        CLEAR     67  64  90 S5        30.07F
TOLEDO EXPRESS CLEAR     67  66  97 CALM      30.06S
TOLEDO EXEC    PTCLDY    70  65  84 SW7       30.07S
LIMA           PTCLDY    69  66  90 S5        30.09F
$$

OHZ009>014-019>023-028>033-038-089-021100-
   NORTHEAST OHIO

CITY           SKY/WX    TMP DP  RH WIND       PRES   REMARKS
CLE-HOPKINS    PTCLDY    69  65  86 S5        30.09F
CLE-LAKEFRONT  CLEAR     73  65  75 S5        30.06S
CUY CO. ARPT   NOT AVBL
LORAIN-ELYRIA  CLEAR     66  64  93 SW5       30.08F FOG
ASHTABULA      CLEAR     67  66  97 S3        30.08F FOG
AKRON-CANTON   MOCLDY    71  66  84 W3        30.10S
WOOSTER        FOG       63  62  97 CALM      30.11S VSB 1/4
MANSFIELD      PTCLDY    69  65  86 SW5       30.11S
YOUNGSTOWN     MOCLDY    70  66  87 SW5       30.10S
$$

OHZ042-051>053-060>062-070>072-077>081-021100-
  SOUTHWEST OHIO

CITY           SKY/WX    TMP DP  RH WIND       PRES   REMARKS
CINC-COVINGTON CLEAR     67  65  93 CALM      30.11S FOG
CINC-LUNKEN    FOG       66  66 100 CALM      30.11S VSB 3/4
HAMILTON       MOCLDY    66  64  93 CALM      30.12S FOG
DAYTON         CLEAR     68  67  96 S5        30.12S
WRIGHT-PAT AFB CLEAR     66  66 100 SE2       30.11S
DAYTON GENERAL CLEAR     67  63  87 S5        30.11S
WILMINGTON     CLEAR     64  62  93 CALM      30.12S FOG
$$

OHZ036-037-039>041-045>050-054>059-063>069-073>076-082>088-021100-
  CENTRAL AND SOUTHEAST OHIO

CITY           SKY/WX    TMP DP  RH WIND       PRES   REMARKS
COLUMBUS       MOCLDY    69  67  93 CALM      30.10S
OSU AIRPORT    PTCLDY    70  65  84 CALM      30.11R
BOLTON FIELD   PTCLDY    65  65  99 CALM      30.11S FOG
RICKENBACK AFB PTCLDY    65  64  97 CALM      30.10S FOG
NEWARK         FOG       65  64  97 CALM      30.11R VSB 3/4
MARION         CLEAR     65  62  90 S3        30.10S FOG
LANCASTER      PTCLDY    64  62  93 CALM      30.11S FOG
ZANESVILLE     MOCLDY    67  64  90 CALM      30.10F FOG
NEW PHILLY     MOCLDY    68  67  96 CALM      30.10F FOG
$$



USA.gov is the U.S. government's official web portal to all federal, state and local government web resources and services.